Regional Weather Roundup
Issued by NWS

Home | Current Version | Previous Version | Graphics & Text | Print | Product List | Glossary On
Versions: 1 2 3 4 5 6 7 8 9 10 11 12 13 14 15 16 17 18 19 20 21 22 23 24 25 26 27 28 29 30 31 32 33 34 35 36 37 38 39 40 41 42 43 44 45 46 47 48 49 50
000
ASUS43 KMPX 220801
RWRMN
WEATHER ROUNDUP FOR MINNESOTA
NATIONAL WEATHER SERVICE TWIN CITIES/CHANHASSEN MN
200 AM CST THU FEB 22 2018


NOTE: "FAIR" INDICATES FEW OR NO CLOUDS BELOW 12,000 FEET WITH NO
SIGNIFICANT WEATHER AND/OR OBSTRUCTIONS TO VISIBILITY. N/A MEANS
CURRENT SKY AND/OR WEATHER CONDITIONS ARE NOT AVAILABLE.

MNZ060>063-068>070-220900-
   Twin Cities Metro

CITY           SKY/WX    TMP DP  RH WIND       PRES   REMARKS
TWIN CITIES    MOCLDY    10   5  80 CALM      30.62S
ST PAUL        FAIR       7   3  84 CALM      30.64S
CRYSTAL        FAIR       4  -1  80 CALM      30.61S
BLAINE         FAIR       5   1  85 CALM      30.61S
LAKEVILLE        N/A      1   0  92 CALM      30.60S
EDEN PRAIRIE   FAIR       8   2  76 NE3       30.60S
SOUTH ST PAUL  FAIR       5   1  84 CALM      30.62S
LAKE ELMO      FAIR       0  -4  85 CALM      30.62S
$$
MNZ001>005-007-008-013>017-022>024-027-028-220900-
   Northwest Minnesota

CITY           SKY/WX    TMP DP  RH WIND       PRES   REMARKS
BEMIDJI        FAIR     -13 -17  82 SE3       30.51F
HALLOCK        FAIR      -4  -8  84 SE12      30.49F WCI -22
ROSEAU         FAIR      -8 -11  84 S8        30.51F WCI -23
WARROAD        FAIR      -2  -8  78 S6        30.51S WCI -14
THIEF RVR FALL FAIR      -3  -8  79 S6        30.51F WCI -15
CROOKSTON      FAIR       0  -6  78 S12       30.53F WCI -18
FOSSTON        FAIR       1  -6  71 SE8       30.51S WCI -12
DETROIT LAKES  FAIR       3   0  85 CALM      30.52F
MOORHEAD       FAIR       0  -8  71 SE5       30.54F WCI -10
PARK RAPIDS    FAIR      -7 -12  79 CALM      30.52S
MAHNOMEN       FAIR       2  -4  74 SE7       30.52S WCI -10
$$
MNZ006-009>011-018-025>026-220900-
   North Central Minnesota

CITY           SKY/WX    TMP DP  RH WIND       PRES   REMARKS
BAUDETTE       FAIR      -8 -11  86 SE3       30.51S
FLAG ISLAND    FAIR      -9 -13  84 SE5       30.50S WCI -21
INTL FALLS     FAIR      -8 -12  83 S5        30.55R WCI -19
WASKISH        FAIR     -15 -20  76 S3        30.53S
BIG FORK       FAIR      -8 -13  77 CALM      30.54S
LONGVILLE      FAIR     -13 -18  77 CALM      30.55S
GRAND RAPIDS   FAIR      -7 -10  87 S3        30.57F
CRANE LAKE     FAIR     -17 -18  91 CALM      30.60R
ORR            FAIR       1  -6  71 SE3       30.53S
COOK             N/A     -9 -15  77 CALM      30.56S
WALKER         FAIR      -5  -9  84 CALM      30.53F
$$
MNZ012-019>021-037-220900-
   Northeast Minnesota

CITY           SKY/WX    TMP DP  RH WIND       PRES   REMARKS
DULUTH         FAIR       8  -2  63 NW5       30.56F WCI   0
ELY            FAIR       3  -2  78 CALM      30.56F
HIBBING        FAIR     -16 -21  78 CALM      30.56S
EVELETH        FAIR     N/A N/A N/A CALM      30.58S
DULUTH HARBOR  FAIR       5  -2  72 S6        30.65F WCI  -6
TWO HARBORS    FAIR       9   1  72 W6        30.57F WCI  -1
SILVER BAY     FAIR      -9 -15  77 CALM      30.58
GRAND MARAIS     N/A     12   0  58 NW5       30.64R WCI   4
G MARAIS ARPRT FAIR       7  -2  66 SW3       30.54R
$$
MNZ029>031-032-039>041-046>048-054>057-064-220900-
   West Central Minnesota

CITY           SKY/WX    TMP DP  RH WIND       PRES   REMARKS
FERGUS FALLS   FAIR       5  -2  72 SE8       30.54S WCI  -8
WHEATON        FAIR       0  -6  78 SE7       30.57R WCI -13
MORRIS         FAIR       0  -6  78 E6        30.54S WCI -12
ALEXANDRIA     FAIR       2  -3  80 SE7       30.53F WCI -11
ELBOW LAKE     FAIR       3  -3  77 SE7       30.54S WCI  -9
WADENA         FAIR      -8 -11  84 SE5       30.52F WCI -19
GLENWOOD       FAIR       1  -2  85 SE6       30.54F WCI -10
APPLETON       FAIR       1  -4  78 SE3       30.57R
BENSON         FAIR      -6  -9  84 SE3       30.57S
MADISON        FAIR       3  -2  78 CALM      30.55S
WILLMAR        FAIR       0  -4  85 E3        30.58F
$$
MNZ033>034-036-042>043-049>051-058-059-220900-
   Central Minnesota

CITY           SKY/WX    TMP DP  RH WIND       PRES   REMARKS
ST CLOUD       FAIR      -6  -9  86 E3        30.59F
SAUK CENTRE    FAIR      -6 -10  86 CALM      30.56F
PAYNESVILLE    FAIR      -5  -8  86 CALM      30.57F
AITKIN         FAIR      -9 -13  84 CALM      30.56F
PINE RIVER     FAIR     -11 -15  84 CALM      30.57F
BRAINERD       FAIR      -6 -13  71 CALM      30.56F
STAPLES        FAIR      -8 -11  84 CALM      30.54F
LONG PRAIRIE   FAIR      -8  -9  92 CALM      30.55F
LITTLE FALLS   FAIR      -8 -15  71 CALM      30.59F
LITCHFIELD     FAIR       1   0  92 CALM      30.58S
BUFFALO        FAIR      -2  -6  81 CALM      30.62S
MAPLE LAKE     FAIR      -3  -6  88 CALM      30.60F
HUTCHINSON     FAIR       0  -4  83 CALM      30.58F
$$
MNZ037-044-045-052-053-220900-
   East Central Minnesota

CITY           SKY/WX    TMP DP  RH WIND       PRES   REMARKS
PRINCETON      FAIR      -2  -8  78 CALM      30.60F
CAMBRIDGE        N/A      0  -9  65 CALM      30.62F
RUSH CITY      FAIR      -3  -6  84 CALM      30.62F
MOOSE LAKE     FAIR      -8 -13  77 CALM      30.58F
HINCKLEY       FAIR      -9 -13  84 CALM      30.62R
CLOQUET        FAIR       0  -6  78 CALM      30.57F
MCGREGOR       FAIR      -2  -6  84 CALM      30.57F
$$
MNZ071>073-080-081-089-090-097-098-220900-
   Southwest Minnesota

CITY           SKY/WX    TMP DP  RH WIND       PRES   REMARKS
MONTEVIDEO     FAIR       1  -2  85 S5        30.56S WCI  -8
GRANITE FALLS  FAIR       6   2  84 E6        30.57F WCI  -5
CANBY          FAIR      -1  -4  83 CALM      30.54F
MARSHALL       MOCLDY     2  -2  83 SE3       30.54S
REDWOOD FALLS  FAIR       7   2  80 E3        30.56S
OLIVIA         FAIR       3  -2  78 CALM      30.57S
PIPESTONE      FAIR      10   5  79 S7        30.48S WCI   0
WORTHINGTON    CLOUDY    13   7  77 SE5       30.51R WCI   5
JACKSON        CLOUDY    12   7  79 E7        30.50F WCI   2
TRACY          FAIR       6   2  84 CALM      30.52F
SLAYTON        FAIR       7   3  84 S5        30.51S WCI  -1
$$
MNZ065>067-074>077-082>085-091>093-220900-
   South Central Minnesota

CITY           SKY/WX    TMP DP  RH WIND       PRES   REMARKS
MANKATO        FAIR       8   4  83 E5        30.57F WCI   0
NEW ULM        MOCLDY    10   3  72 E3        30.56F
ST JAMES       CLOUDY    10   7  85 NE5       30.56F WCI   2
FAIRMONT       FAIR      11   7  84 E3        30.55F
GLENCOE        FAIR       4   0  83 CALM      30.59S
FARIBAULT      FAIR       1   0  92 CALM      30.58F
OWATONNA       FAIR       9   5  85 E3        30.56F
WASECA         FAIR      12   7  79 E5        30.57F WCI   4
ALBERT LEA     FAIR      16  10  79 CALM      30.54F
$$
MNZ078>079-086>088-094>096-220900-
   Southeast Minnesota

CITY           SKY/WX    TMP DP  RH WIND       PRES   REMARKS
ROCHESTER      MOCLDY    15  10  80 E7        30.55F WCI   5
RED WING       FAIR       5   0  78 E3        30.61F
STANTON        FAIR       2  -1  83 CALM      30.58F
DODGE CENTER   FAIR      12   7  79 E6        30.55F WCI   3
WINONA         FAIR      14  12  92 CALM      30.62F
AUSTIN         FAIR      18  12  79 E3        30.54F
PRESTON        CLOUDY    17  12  81 NE5       30.55F WCI   9
$$
ABBREVIATIONS USED IN REMARKS
   TC - TEMPERATURES IN CELSIUS
  WCI - WIND CHILL INDEX
   HX - HEAT INDEX
  VSB - VISIBILITY
$$



USA.gov is the U.S. government's official web portal to all federal, state and local government web resources and services.